DL3TR-13 Weather Reports


time (UTC)temp
C
wind
direction
speed
KPH
gust
KPH
rain 1hr
cm
rain 24hr
cm
rain mn
cm
humidity
%
barometer
mb
20260507140310 13 265 4.8 16.1 0.00 0.23 0.23 70 1013.5
20260507135310 13 314 6.4 16.1 0.00 0.23 0.23 68 1013.5
20260507134309 14 280 8.0 20.9 0.00 0.23 0.23 65 1013.6
20260507133309 15 238 6.4 19.3 0.00 0.23 0.23 69 1013.6
20260507132309 15 259 9.7 17.7 0.00 0.23 0.23 68 1013.6
20260507131310 15 247 9.7 17.7 0.00 0.23 0.23 70 1013.6
20260507130309 15 233 9.7 17.7 0.00 0.23 0.23 72 1013.6
20260507125310 15 229 11.3 16.1 0.00 0.23 0.23 69 1013.4
20260507124309 15 221 8.0 16.1 0.00 0.23 0.23 69 1013.6
20260507123309 15 212 9.7 20.9 0.00 0.23 0.23 73 1013.5
20260507122309 15 296 8.0 22.5 0.00 0.23 0.23 70 1013.5
20260507121309 15 246 6.4 16.1 0.00 0.23 0.23 73 1013.4
20260507120309 14 232 8.0 14.5 0.00 0.23 0.23 72 1013.6
20260507115309 13 240 8.0 14.5 0.00 0.23 0.23 77 1013.7
20260507114309 12 283 9.7 14.5 0.00 0.23 0.23 79 1013.8
20260507113309 12 246 9.7 17.7 0.00 0.23 0.23 74 1013.7
20260507112309 12 221 6.4 12.9 0.00 0.23 0.23 79 1013.8
20260507111309 13 226 9.7 17.7 0.00 0.23 0.23 78 1013.9
20260507110310 12 236 6.4 14.5 0.00 0.23 0.23 79 1013.9
20260507105310 11 279 6.4 12.9 0.00 0.23 0.23 83 1013.9
20260507104309 11 270 4.8 12.9 0.00 0.23 0.23 83 1014.1
20260507103310 11 267 8.0 12.9 0.00 0.23 0.23 82 1014.1
20260507102309 11 247 6.4 19.3 0.00 0.23 0.23 82 1014.0
20260507101310 11 241 6.4 17.7 0.00 0.23 0.23 81 1014.0
20260507100309 11 236 6.4 14.5 0.00 0.23 0.23 82 1014.0
20260507095309 11 294 9.7 16.1 0.00 0.23 0.23 85 1014.0
20260507094309 11 229 6.4 12.9 0.00 0.23 0.23 84 1014.0
20260507093310 10 267 6.4 16.1 0.00 0.23 0.23 87 1014.0
20260507092309 10 267 8.0 14.5 0.00 0.23 0.23 87 1013.9
20260507091309 10 265 8.0 16.1 0.00 0.23 0.23 87 1013.9
20260507090311 10 265 6.4 9.7 0.00 0.23 0.23 90 1013.7
20260507085312 10 240 6.4 11.3 0.00 0.23 0.23 92 1013.7
20260507084311 9 244 6.4 11.3 0.00 0.23 0.23 91 1013.7
20260507083312 9 231 6.4 11.3 0.00 0.23 0.23 92 1013.6
20260507082312 9 225 4.8 14.5 0.00 0.23 0.23 92 1013.4
20260507081311 9 242 6.4 16.1 0.00 0.23 0.23 93 1013.3
20260507080311 8 226 4.8 16.1 0.03 0.23 0.23 93 1013.3
20260507075311 8 236 6.4 11.3 0.03 0.23 0.23 93 1013.3
20260507074311 8 239 6.4 16.1 0.05 0.23 0.23 94 1013.2
20260507073312 8 214 4.8 9.7 0.05 0.23 0.23 94 1013.2
20260507072312 8 265 4.8 8.0 0.10 0.23 0.23 93 1013.1
20260507071311 8 249 3.2 9.7 0.15 0.23 0.23 93 1013.0
20260507070311 8 232 6.4 11.3 0.15 0.23 0.23 93 1013.0
20260507065311 8 190 6.4 14.5 0.15 0.23 0.23 93 1012.8
20260507064311 8 223 8.0 11.3 0.15 0.20 0.20 93 1012.7
20260507063312 8 244 6.4 14.5 0.15 0.18 0.18 93 1012.7
20260507062311 8 205 9.7 12.9 0.13 0.15 0.15 93 1012.7
20260507061311 8 210 6.4 12.9 0.08 0.10 0.10 93 1012.5
20260507060311 8 224 4.8 12.9 0.05 0.08 0.08 93 1012.5
20260507055311 7 236 6.4 14.5 0.08 0.08 0.08 92 1012.4
20260507054311 7 217 6.4 14.5 0.05 0.05 0.05 92 1012.3
20260507053312 8 211 6.4 12.9 0.05 0.05 0.05 91 1012.3
20260507052311 8 217 4.8 11.3 0.03 0.03 0.03 92 1012.1
20260507051311 7 207 4.8 11.3 0.03 0.03 0.03 91 1011.9
20260507050311 7 292 3.2 9.7 0.03 0.03 0.03 92 1011.8
20260507045311 7 220 4.8 6.4 0.00 0.00 0.00 92 1011.6
20260507044311 7 200 4.8 14.5 0.00 0.00 0.00 92 1011.5
20260507043312 7 233 4.8 12.9 0.00 0.00 0.00 93 1011.5
20260507042311 7 213 4.8 8.0 0.00 0.00 0.00 93 1011.2
20260507041311 7 230 3.2 8.0 0.00 0.00 0.00 93 1011.2
20260507040311 7 213 4.8 9.7 0.00 0.00 0.00 93 1011.2
20260507035311 6 219 3.2 8.0 0.00 0.00 0.00 93 1011.0
20260507034311 6 225 0.0 6.4 0.00 0.00 0.00 93 1011.1
20260507033312 6 201 3.2 8.0 0.00 0.00 0.00 92 1011.0
20260507032311 6 215 3.2 8.0 0.00 0.00 0.00 92 1010.8
20260507031311 7 221 1.6 6.4 0.00 0.00 0.00 93 1010.8
20260507030311 6 209 0.0 3.2 0.00 0.00 0.00 92 1011.0
20260507025311 7 209 1.6 4.8 0.00 0.00 0.00 92 1010.9
20260507024311 7 207 1.6 4.8 0.00 0.00 0.00 93 1010.9
20260507023312 7 203 3.2 8.0 0.00 0.00 0.00 92 1010.9
20260507022311 7 223 1.6 4.8 0.00 0.00 0.00 93 1011.0
20260507021311 7 234 1.6 4.8 0.00 0.00 0.00 92 1010.8
20260507020311 6 202 0.0 1.6 0.00 0.00 0.00 92 1010.8
20260507015311 7 202 0.0 3.2 0.00 0.00 0.00 92 1010.6
20260507014311 6 200 0.0 0.0 0.00 0.00 0.00 92 1010.5
20260507013313 7 200 0.0 0.0 0.00 0.00 0.00 91 1010.5
20260507012313 6 200 0.0 0.0 0.00 0.00 0.00 91 1010.5
20260507011312 7 200 0.0 0.0 0.00 0.00 0.00 91 1010.4
20260507010311 7 200 0.0 3.2 0.00 0.00 0.00 91 1010.4
20260507005311 6 200 0.0 0.0 0.00 0.00 0.00 90 1010.3
20260507004311 7 200 0.0 1.6 0.00 0.00 0.00 90 1010.2
20260507003311 7 207 0.0 1.6 0.00 0.00 0.00 91 1010.1
20260507002311 7 207 0.0 1.6 0.00 0.00 0.00 90 1010.2
20260507001311 7 207 0.0 3.2 0.00 0.00 0.00 90 1010.2
20260507000311 6 207 1.6 4.8 0.00 0.00 0.00 90 1010.4
20260506235311 7 207 1.6 4.8 0.00 0.00 0.00 90 1010.4
20260506234311 7 206 3.2 8.0 0.00 0.00 0.00 90 1010.4
20260506233311 7 192 0.0 1.6 0.00 0.00 0.00 90 1010.4
20260506232311 7 191 0.0 3.2 0.00 0.00 0.00 90 1010.5
20260506231311 6 204 0.0 6.4 0.00 0.00 0.00 90 1010.3
20260506230311 6 219 0.0 6.4 0.00 0.00 0.00 89 1010.2
20260506225311 7 206 3.2 9.7 0.00 0.00 0.00 88 1010.2
20260506224311 7 210 4.8 9.7 0.00 0.00 0.00 88 1010.2
20260506223311 7 216 4.8 11.3 0.00 0.00 0.00 88 1010.2
20260506222311 7 211 4.8 11.3 0.00 0.00 0.00 88 1010.1
20260506221311 7 213 8.0 11.3 0.00 0.00 0.00 88 1010.2
20260506220311 7 223 6.4 11.3 0.00 0.00 0.00 90 1010.2
20260506215311 7 216 4.8 12.9 0.00 0.13 0.13 91 1010.2
20260506214311 7 219 4.8 8.0 0.00 0.13 0.13 90 1010.1
20260506213311 7 220 1.6 8.0 0.00 0.13 0.13 89 1010.0
20260506212311 7 213 4.8 11.3 0.00 0.13 0.13 90 1010.0
20260506211311 7 227 4.8 9.7 0.00 0.13 0.13 89 1010.0
20260506210311 7 214 4.8 11.3 0.00 0.13 0.13 90 1009.9
20260506205311 7 196 6.4 9.7 0.00 0.13 0.13 90 1009.8
20260506204326 7 213 4.8 8.0 0.00 0.13 0.13 91 1009.8
20260506203311 7 211 3.2 6.4 0.00 0.13 0.13 91 1009.8
20260506202310 7 205 4.8 11.3 0.00 0.13 0.13 91 1009.7
20260506201311 7 202 4.8 6.4 0.00 0.13 0.13 90 1009.6
20260506200311 7 218 3.2 9.7 0.00 0.13 0.13 90 1009.5
20260506195311 7 215 4.8 6.4 0.00 0.13 0.13 90 1009.5
20260506194310 8 203 1.6 9.7 0.00 0.13 0.13 89 1009.5
20260506193311 8 231 6.4 8.0 0.00 0.13 0.13 89 1009.4
20260506192311 8 214 3.2 11.3 0.00 0.13 0.13 90 1009.2
20260506191311 8 202 3.2 6.4 0.00 0.13 0.13 90 1009.1
20260506190311 8 215 1.6 6.4 0.00 0.13 0.13 89 1008.8
20260506185311 8 221 3.2 6.4 0.00 0.13 0.13 89 1008.6
20260506184310 8 213 4.8 6.4 0.00 0.13 0.13 89 1008.6
20260506183311 8 226 3.2 6.4 0.00 0.13 0.13 89 1008.6
20260506182310 8 226 3.2 9.7 0.00 0.13 0.13 88 1008.4
20260506181311 8 228 4.8 11.3 0.00 0.13 0.13 87 1008.2
20260506180310 9 238 6.4 14.5 0.00 0.13 0.13 86 1008.2
20260506175310 9 240 8.0 12.9 0.00 0.13 0.13 87 1008.1
20260506174311 10 240 8.0 9.7 0.00 0.13 0.13 87 1008.2
20260506173310 10 235 4.8 12.9 0.00 0.13 0.13 87 1008.0
20260506172310 10 203 6.4 14.5 0.00 0.13 0.13 87 1008.0
20260506171310 10 240 8.0 17.7 0.00 0.13 0.13 87 1007.8
20260506170311 10 219 11.3 17.7 0.00 0.13 0.13 86 1007.6
20260506165310 10 216 9.7 12.9 0.00 0.13 0.13 87 1007.6
20260506164310 10 221 6.4 11.3 0.00 0.13 0.13 89 1007.2
20260506163310 9 231 6.4 14.5 0.00 0.13 0.13 89 1007.6
20260506162310 9 227 9.7 12.9 0.00 0.13 0.13 88 1007.6
20260506161310 9 236 6.4 19.3 0.00 0.13 0.13 89 1007.9
20260506160310 9 235 11.3 20.9 0.00 0.13 0.13 88 1007.9
20260506155311 9 199 11.3 24.1 0.00 0.13 0.13 88 1007.8
20260506154310 10 230 11.3 20.9 0.00 0.13 0.13 88 1007.6
20260506153310 10 239 9.7 25.7 0.03 0.13 0.13 89 1007.1
20260506152311 9 210 11.3 20.9 0.03 0.13 0.13 88 1006.9
20260506151310 10 227 9.7 29.0 0.03 0.13 0.13 90 1006.8
20260506150310 9 234 12.9 29.0 0.03 0.13 0.13 88 1006.6
20260506145310 9 279 11.3 37.0 0.03 0.13 0.13 87 1006.5
20260506144311 10 252 19.3 37.0 0.03 0.13 0.13 83 1006.1
20260506143311 12 219 12.9 37.0 0.03 0.10 0.10 76 1005.8
20260506142310 16 232 11.3 11.3 0.03 0.10 0.10 76 1004.8
20260506141310 15 234 6.4 9.7 0.03 0.10 0.10 76 1004.7